This demonstration page uses our WeatherBlox Daily Observations layout. Learn more.

Left ArrowRight Arrow

39.51506, -84.39828

Hourly Observations for July 9, 2015

Temp ( °F °C ) Dew Point ( °F °C ) Humidity (%) Winds ( mph kmh ) Pressure ( in mb ) Visibility ( mi km ) Precip ( " mm )
12:15 am 00:15 Mostly Cloudy 74 23.6 72 22 91 91 S 3 6 30.00 1016 7 11 N/A
12:35 am 00:35 Cloudy 74 23.6 72 22 91 91 N N/A 30.00 1016 7 11 N/A
12:55 am 00:55 Partly Cloudy with Mist and Fog 74 23.4 71 21.8 91 91 N N/A 30.00 1016 5 8 N/A
1:15 am 01:15 Clear with Mist and Fog 71 21.9 69 20.3 91 91 N N/A 29.97 1015 4 6 N/A
1:35 am 01:35 Partly Cloudy with Mist and Fog 69 20.8 67 19.3 91 91 N N/A 29.97 1015 2 2 N/A
1:55 am 01:55 Clear with Mist and Fog 70 21 67 19.5 91 91 N N/A 29.97 1015 4 6 N/A
2:15 am 02:15 Partly Cloudy with Mist and Fog 72 22.3 69 20.8 91 91 N N/A 29.94 1014 5 8 N/A
2:35 am 02:35 Clear with Mist and Fog 72 22.3 69 20.8 91 91 N N/A 29.94 1014 5 8 N/A
2:55 am 02:55 Partly Cloudy with Mist and Fog 69 20.8 67 19.3 91 91 SW 3 6 29.94 1014 3 4 N/A
3:15 am 03:15 Clear with Mist and Fog 70 21 67 19.5 91 91 SSW 6 9 29.94 1014 4 6 N/A
3:35 am 03:35 Clear 74 23.6 72 22 91 91 SSW 7 11 29.94 1014 10 16 N/A
3:55 am 03:55 Clear 74 23.6 71 21.8 90 90 SSW 8 13 29.91 1013 10 16 N/A
4:15 am 04:15 Clear 74 23.6 71 21.6 89 89 SSW 8 13 29.91 1013 10 16 N/A
4:35 am 04:35 Clear 74 23.6 71 21.4 88 88 SSW 7 11 29.91 1013 10 16 N/A
4:55 am 04:55 Clear 74 23.6 70 21.3 87 87 SW 7 11 29.91 1013 10 16 N/A
5:15 am 05:15 Partly Cloudy 74 23.6 70 21.2 86 86 SSW 9 15 29.91 1013 10 16 N/A
5:35 am 05:35 Partly Cloudy 74 23.6 70 21.2 86 86 SSW 8 13 29.88 1012 10 16 N/A
5:55 am 05:55 Mostly Cloudy 74 23.6 70 21.2 86 86 SSW 9 15 29.91 1013 10 16 N/A
6:15 am 06:15 Cloudy with Heavy Rain 74 23.6 70 21.2 86 86 WSW 8 13 29.91 1013 7 11 N/A
6:35 am 06:35 Mostly Cloudy 74 23.6 71 21.5 88 88 SSW 7 11 29.91 1013 10 16 N/A
6:55 am 06:55 Sunny 74 23.6 71 21.6 89 89 SSW 9 15 29.91 1013 7 11 N/A
7:15 am 07:15 Sunny 74 23.6 71 21.4 88 88 SSW 12 19 29.91 1013 10 16 N/A
7:35 am 07:35 Sunny 74 23.6 70 21.3 87 87 SSW 12 19 29.91 1013 10 16 N/A
7:55 am 07:55 Partly Cloudy 74 23.6 70 21 85 85 SSW 10 17 29.91 1013 10 16 N/A
8:15 am 08:15 Mostly Cloudy 74 23.6 70 21 85 85 SW 12 19 29.91 1013 10 16 N/A
8:35 am 08:35 Cloudy 77 25.1 72 22.2 84 84 SW 12 19 29.91 1013 10 16 N/A
8:55 am 08:55 Cloudy with Drizzle 75 24.1 70 21.2 84 84 WSW 16 26 29.91 1013 10 16 N/A
9:15 am 09:15 Cloudy 76 24.3 71 21.4 84 84 SW 13 20 29.94 1014 10 16 N/A
9:35 am 09:35 Cloudy with Drizzle 74 23.6 70 21.1 86 86 SW 13 20 29.94 1014 7 11 N/A
9:55 am 09:55 Cloudy 74 23.6 70 21.2 86 86 SW 12 19 29.94 1014 7 11 N/A
10:15 am 10:15 Cloudy with Haze 74 23.6 70 21.2 86 86 SW 14 22 29.94 1014 3 5 N/A
10:35 am 10:35 Cloudy 74 23.6 70 21.2 86 86 SW 12 19 29.94 1014 10 16 N/A
10:55 am 10:55 Cloudy 75 23.7 70 21.1 85 85 WSW 10 17 29.94 1014 7 11 N/A
11:15 am 11:15 Cloudy 77 25.1 72 22.2 84 84 SW 14 22 29.94 1014 10 16 N/A
11:35 am 11:35 Cloudy N/A N/A N/A undefined N/A N/A N/A N/A
11:55 am 11:55 undefined N/A N/A N/A WSW 12 19 N/A N/A N/A
12:15 pm 12:15 undefined N/A N/A N/A undefined N/A N/A 10 16 N/A
12:35 pm 12:35 undefined N/A N/A N/A undefined N/A N/A N/A N/A
12:55 pm 12:55 undefined N/A N/A N/A undefined N/A N/A N/A N/A
1:15 pm 13:15 undefined 80 26.5 69 20.8 71 71 W 16 26 29.97 1015 10 16 N/A
1:35 pm 13:35 Mostly Cloudy 80 26.5 68 19.9 67 67 W 16 26 29.97 1015 10 16 N/A
1:55 pm 13:55 undefined N/A N/A N/A undefined N/A N/A N/A N/A
2:15 pm 14:15 undefined N/A N/A N/A undefined N/A N/A N/A N/A
2:35 pm 14:35 undefined N/A N/A N/A undefined N/A N/A N/A N/A
2:55 pm 14:55 undefined N/A N/A N/A undefined N/A N/A N/A N/A
3:15 pm 15:15 undefined N/A N/A N/A undefined N/A N/A N/A N/A
3:35 pm 15:35 undefined N/A N/A N/A undefined N/A N/A N/A N/A
3:55 pm 15:55 undefined N/A N/A N/A undefined N/A N/A N/A N/A
4:15 pm 16:15 undefined N/A N/A N/A undefined N/A N/A N/A N/A
4:35 pm 16:35 undefined N/A N/A N/A undefined N/A N/A N/A N/A
4:55 pm 16:55 undefined N/A N/A N/A undefined N/A N/A N/A N/A
5:15 pm 17:15 undefined N/A N/A N/A undefined N/A N/A N/A N/A
5:35 pm 17:35 undefined N/A N/A N/A undefined N/A N/A N/A N/A
5:55 pm 17:55 undefined N/A N/A N/A undefined N/A N/A N/A N/A
6:15 pm 18:15 undefined N/A N/A N/A undefined N/A N/A N/A N/A
6:35 pm 18:35 undefined N/A N/A N/A undefined N/A N/A N/A N/A
6:55 pm 18:55 undefined N/A N/A N/A undefined N/A N/A N/A N/A
7:15 pm 19:15 undefined N/A N/A N/A undefined N/A N/A N/A N/A
7:35 pm 19:35 undefined N/A N/A N/A undefined N/A N/A N/A N/A
7:55 pm 19:55 undefined N/A N/A N/A undefined N/A N/A N/A N/A
8:15 pm 20:15 undefined N/A N/A N/A undefined N/A N/A N/A N/A
8:35 pm 20:35 undefined N/A N/A N/A undefined N/A N/A N/A N/A
8:55 pm 20:55 undefined N/A N/A N/A undefined N/A N/A N/A N/A
9:15 pm 21:15 undefined N/A N/A N/A undefined N/A N/A N/A N/A
9:35 pm 21:35 undefined N/A N/A N/A undefined N/A N/A N/A N/A
9:55 pm 21:55 undefined N/A N/A N/A undefined N/A N/A N/A N/A
10:15 pm 22:15 undefined N/A N/A N/A undefined N/A N/A N/A N/A
10:35 pm 22:35 undefined N/A N/A N/A undefined N/A N/A N/A N/A
10:55 pm 22:55 undefined N/A N/A N/A undefined N/A N/A N/A N/A
11:15 pm 23:15 undefined N/A N/A N/A undefined N/A N/A N/A N/A
11:35 pm 23:35 undefined N/A N/A N/A undefined N/A N/A N/A N/A
11:55 pm 23:55 undefined N/A N/A N/A undefined N/A N/A N/A N/A

Powered by AerisWeather